Location: La Roquebrussanne
(43.3399°N, 5.9762°E)
Time: 04:56:31
(UTC+00:00)

Daily predictions for brighter satellites

Satellite Brightness Start Highest point End
(mag) Time Altitude Azimuth Time Altitude Azimuth Time Altitude Azimuth
Thor Agena Rocket 4.2 00:03:31 10° N 00:08:23 48° WNW 00:08:23 48° WNW
EO 1 Delta rocket 4.1 00:09:20 73° NNE 00:09:20 73° NNE 00:14:24 10° N
Cosmos 1821 Rocket 4.0 00:04:22 10° NNW 00:10:43 66° W 00:10:54 66° WSW
Meteor 1-15 Rocket 4.4 00:05:34 10° N 00:11:12 62° ENE 00:11:29 61° E
SL-16 R/B 4.1 00:09:29 17° ESE 00:13:09 30° ENE 00:18:26 10° N
Cosmos 2298 Rocket 4.2 00:15:04 67° NW 00:15:04 67° NW 00:19:59 10° NNE
Cosmos 1048 Rocket 4.3 00:11:31 10° NNW 00:15:59 60° NW 00:15:59 60° NW
Cosmos 1934 Rocket 3.8 00:10:44 10° N 00:16:55 80° E 00:17:20 75° SE
Resurs 1-4 Rocket 3.6 00:13:37 10° NE 00:17:51 24° E 00:18:10 24° E
Gbstr 26 Del rocket 3.7 00:16:00 10° WNW 00:22:27 81° W 00:22:27 81° W
USA 281 3.5 00:23:02 37° ESE 00:25:34 61° ENE 00:32:02 10° NNW
CZ-4 R/B 4.2 00:23:56 10° NNE 00:28:15 62° ENE 00:28:15 62° ENE
Cosmos 1535 Rocket 4.3 00:28:55 10° N 00:35:11 83° W 00:35:45 74° SSW
Cosmos 2221 Rocket 4.1 00:37:15 60° N 00:37:15 60° N 00:41:01 10° N
Cosmos 2369 Rocket 3.5 00:45:13 27° WNW 00:46:26 30° NW 00:51:21 10° N
Cosmos 44 Rocket 3.9 00:42:50 10° NNW 00:48:00 57° NE 00:49:28 41° ESE
RESURS DK-1 4.2 00:43:59 10° NW 00:45:44 23° NW 00:45:44 23° NW
Lacrosse 5 2.8 00:50:13 36° ESE 00:50:13 36° ESE 00:54:08 10° ENE
Cosmos 1726 3.8 00:50:56 10° NNE 00:53:55 30° ENE 00:53:55 30° ENE
Cosmos 1943 Rocket 4.4 00:53:24 11° WNW 00:56:12 16° NW 00:59:30 10° N
BREEZE-M R/B 3.9 00:58:37 54° SE 00:58:37 54° SE 01:04:48 10° ESE
Helios 1B rocket 3.2 00:56:28 10° NNE 01:00:03 45° ENE 01:00:03 45° ENE
Cosmos 1867 4.4 00:59:35 36° WNW 01:00:40 40° NW 01:05:50 10° NNE
UNK 4.4 01:00:00 45° ESE 01:00:44 50° ENE 01:05:11 10° N
Cosmos 1378 Rocket 3.8 01:01:32 66° NE 01:01:32 66° NE 01:05:23 10° NNE
Gblst 52 Del rocket 4.2 00:55:31 10° WNW 01:01:31 67° WSW 01:01:31 67° WSW
Helios 1A 4.3 01:08:14 30° NW 01:08:14 30° NW 01:10:45 10° NNW
ATLAS CENTAUR R/B 2.6 01:09:09 32° NNW 01:09:09 32° NNW 01:11:59 10° NNE
Cosmos 1400 Rocket 3.2 01:08:28 10° N 01:11:54 60° N 01:11:54 60° N
Cosmos 1153 Rocket 4.5 01:06:46 10° N 01:13:12 87° E 01:15:09 48° S
Meteor 2-20 4.3 01:12:44 59° SSW 01:14:02 87° W 01:20:15 10° N
Okean 1 Rocket 3.0 01:11:12 10° N 01:15:29 79° NE 01:15:29 79° NE
Cosmos 1605 Rocket 4.1 01:09:51 10° NNW 01:15:56 58° W 01:16:50 53° SW
AQUA 4.3 01:11:27 10° NNE 01:16:05 49° E 01:16:46 45° SE
Cosmos 1470 3.1 01:15:53 10° N 01:19:17 63° NNE 01:19:17 63° NNE
NPP 3.7 01:14:43 10° NNE 01:20:07 69° ESE 01:21:15 54° SSE
Cosmos 1459 Rocket 4.4 01:14:56 10° N 01:21:09 58° ENE 01:24:35 27° SSE
BREEZE-M DEB (TANK) 3.7 01:21:10 58° SW 01:22:13 87° SSE 01:35:41 10° ENE
Cosmos 1674 Rocket 4.1 01:27:05 47° WNW 01:27:05 47° WNW 01:31:08 10° N
NOSS 2-1 (E) 4.3 01:22:58 10° NW 01:28:14 88° SW 01:35:44 10° SSE
Cosmos 2173 Rocket 4.1 01:24:36 10° N 01:30:46 70° E 01:34:01 30° SSE
CZ-2D R/B 2.1 01:28:41 10° N 01:34:07 75° WNW 01:35:15 55° SW
Cosmos 2227 Rocket 3.7 01:29:06 10° N 01:34:17 35° NE 01:39:25 10° ESE
Landsat 4 3.8 01:32:11 10° NNE 01:35:49 67° E 01:35:49 67° E
Cosmos 1842 4.5 01:37:36 31° NW 01:37:36 31° NW 01:40:27 10° N
ISS -1.3 01:36:22 16° NW 01:37:51 21° N 01:40:28 10° NE
Cosmos 2297 Rocket 3.1 01:32:34 10° NNW 01:38:04 48° ENE 01:43:31 10° SE
Tianhe-1 3.5 01:45:16 16° ESE 01:45:16 16° ESE 01:46:00 10° ESE
IDEFIX/ARIANE 42P 3.9 01:40:12 10° NNE 01:44:57 33° E 01:48:10 18° SSE
Cosmos 1802 Rocket 4.1 01:40:21 10° N 01:46:31 74° E 01:50:29 23° SSE
ADEOS Rocket 3.9 01:40:46 10° SSE 01:47:54 63° ENE 01:55:32 10° N
Meteor 2-10 4.3 01:43:32 10° NNW 01:48:43 48° W 01:49:23 45° WSW
Cosmos 2100 Rocket 3.9 01:44:57 10° N 01:51:14 78° W 01:54:15 33° S
SL-19 R/B 4.2 01:48:28 10° N 01:54:10 71° WNW 01:55:59 42° SW
ADEOS II 2.1 01:49:12 10° NNE 01:54:29 80° ESE 01:56:31 39° S
SL-16 R/B 2.8 01:54:33 38° SSW 01:56:27 50° W 02:02:32 10° NNW
USA 276 2.6 01:57:32 54° E 01:57:32 54° E 02:00:07 10° ENE
In-Cosmos 22 4.1 01:55:18 38° S 01:57:33 90° W 02:03:09 10° N
Cosmos 2251 Rocket 3.7 01:52:31 10° NNW 01:57:46 72° ENE 02:02:48 11° SSE
Resurs 1-4 Rocket 2.6 01:52:52 10° N 01:57:51 44° WNW 01:59:15 36° WSW
Meteor 1-29 3.1 01:55:03 10° N 01:58:10 60° NW 01:58:10 60° NW
DELTA 2 DEB (DPAF) 4.1 01:56:55 35° SSE 01:58:46 84° ENE 02:03:14 10° NNW
Cosmos 1455 Rocket 3.1 01:54:38 10° N 01:58:58 73° E 02:00:49 33° SSE
Cosmos 2123 Rocket 4.1 01:55:51 27° S 01:59:21 72° E 02:05:33 10° NNE
IRS-1D 3.6 01:57:08 10° NNE 02:02:29 78° ESE 02:04:59 33° S
Cosmos 1674 2.8 02:02:22 51° SSE 02:03:11 72° E 02:07:02 10° NNE
Meteor 2-11 Rocket 4.4 01:57:05 10° N 02:03:16 88° W 02:07:27 22° S
Cosmos 1953 2.4 02:02:57 10° N 02:06:56 74° E 02:08:36 33° SSE
USA 281 4.1 02:09:54 26° WSW 02:10:25 27° WSW 02:15:50 10° NW
KORONAS-FOTON 3.7 02:10:13 50° S 02:11:12 90° W 02:15:08 10° N
Cosmos 2219 3.3 02:08:20 10° NNW 02:14:04 79° ENE 02:19:48 10° SSE
Cosmos 1707 3.9 02:17:33 28° WNW 02:17:41 28° WNW 02:21:01 10° NNW
COSMOS 2455 2.7 02:13:02 10° NW 02:19:02 72° WSW 02:25:01 10° SSE
Cosmos 1864 Rocket 4.5 02:14:18 10° N 02:20:42 83° W 02:26:16 14° S
CZ-3B R/B 4.1 02:05:32 15° WSW 02:22:43 61° NW 02:27:35 10° NE
Cosmos 1656 3.6 02:21:09 32° SW 02:23:44 74° WNW 02:29:15 10° NNE
Cosmos 1726 4.1 02:26:44 10° NW 02:28:21 16° WNW 02:28:21 16° WNW
Cosmos 1975 Rocket 3.6 02:28:12 32° WSW 02:29:27 41° WNW 02:33:35 10° N
IRS-1C 4.4 02:24:25 10° NNE 02:29:45 65° ESE 02:33:59 16° S
Cosmos 304 Rocket 3.9 02:28:04 24° S 02:30:54 70° ESE 02:35:41 10° NNE
Lacrosse 5 2.6 02:29:24 22° W 02:32:21 45° NW 02:37:15 10° NE
CZ-4C R/B 3.5 02:31:18 20° S 02:34:16 69° WSW 02:38:32 10° NNW
Helios 1B rocket 4.3 02:32:47 10° NNW 02:35:20 16° WNW 02:36:21 15° W
Cosmos 1908 3.3 02:32:47 10° NNW 02:36:36 57° W 02:38:27 28° SSW
Spot 1 4.2 02:36:06 16° S 02:39:36 65° WSW 02:44:24 10° NNW
ARIANE 5 R/B 2.9 02:34:31 10° NNE 02:39:40 63° ESE 02:44:19 12° S
Cosmos 1140 Rocket 4.1 02:34:32 10° NNW 02:39:41 59° ENE 02:44:50 10° SSE
Cosmos 1626 2.0 02:41:35 29° SSW 02:43:19 67° W 02:47:00 10° N
Meteor 1-16 Rocket 4.5 02:38:07 10° NNW 02:43:52 53° W 02:48:45 14° SSW
TSX-5 3.5 02:43:55 10° NNW 02:47:19 81° WSW 02:51:24 10° SSE
Cosmos 1315 Rocket 4.1 02:45:11 10° NW 02:48:18 22° W 02:48:49 22° WSW
Cosmos 614 Rocket 4.1 02:44:51 10° NNW 02:49:47 52° WSW 02:54:44 10° S
Cosmos 1725 Rocket 4.2 02:44:00 10° NNW 02:50:02 51° W 02:55:29 12° SSW
APEX 4.1 02:46:45 10° NNW 02:51:03 68° ENE 02:56:28 10° SSE
Iridium 2 3.6 02:48:44 18° S 02:51:27 82° W 02:55:16 10° N
Cosmos 371 Rocket 4.0 02:51:15 21° WSW 02:53:57 39° WNW 02:58:34 10° N
Cosmos 2061 Rocket 4.4 02:48:19 10° NNW 02:54:14 44° W 02:59:26 14° SSW
Lacrosse 4 Rocket 2.0 02:51:03 16° SSW 02:54:29 59° ESE 02:58:52 10° NE
Timation 2 Rocket 3.9 02:48:48 10° NW 02:54:36 54° WSW 03:00:26 10° S
Meteor 1-28 Rocket 4.2 02:54:16 24° WSW 02:55:15 27° W 02:58:27 10° NW
Cosmos 332 Rocket 4.0 02:53:27 21° SW 02:56:39 59° WNW 03:01:29 10° NNE
CZ-2C R/B 2.3 02:57:06 18° S 02:57:07 18° S 02:59:23 10° SE
SL-14 R/B 3.2 02:55:01 18° SSW 02:57:47 72° W 03:01:43 10° N
Cosmos 1697 Rocket 2.7 02:55:38 18° SSW 02:59:54 74° WNW 03:05:32 10° NNE
Cosmos 2233 Rocket 4.0 02:59:34 10° NNW 03:05:40 60° W 03:11:42 10° S
Cosmos 1340 2.8 03:05:45 10° S 03:09:28 72° E 03:13:13 10° NNE
IRS-P3 4.3 03:04:48 10° N 03:10:02 56° WNW 03:14:50 12° SSW
Cosmos 1980 Rocket 2.4 03:04:26 10° SSW 03:10:05 72° ESE 03:15:46 10° NNE
Cosmos 2285 Rocket 4.1 03:04:32 10° SSW 03:10:56 86° ESE 03:17:24 10° NNE
Cosmos 407 Rocket 3.5 03:07:10 10° NNW 03:12:28 65° WSW 03:17:45 10° S
Cosmos 1624 Rocket 4.0 03:07:55 11° SSW 03:13:03 87° WNW 03:18:25 10° NNE
CZ-2C R/B 3.1 03:08:08 10° NNE 03:13:09 57° E 03:18:14 10° S
CZ-2D R/B 4.2 03:11:24 10° NW 03:13:11 12° NW 03:14:58 10° WNW
Meteor 2-10 Rocket 4.4 03:08:18 10° N 03:14:01 59° ENE 03:19:33 10° SSE
Cosmos 1025 Rocket 4.2 03:11:33 16° WSW 03:14:05 27° WNW 03:17:50 10° NNW
USA 129 1.2 03:13:06 10° SSE 03:15:21 86° E 03:16:59 10° NNW
ISS -1.4 03:12:38 10° NW 03:15:28 24° NNE 03:18:17 10° ENE
CZ-2D R/B 3.6 03:13:42 10° N 03:18:04 73° WNW 03:22:29 10° SSW
Cosmos 2369 3.8 03:12:52 12° SSW 03:18:07 71° WNW 03:23:52 10° NNE
Cosmos 2227 Rocket 2.7 03:13:11 10° NW 03:18:19 36° WSW 03:23:24 10° S
Tianhe-1 2.0 03:17:10 15° WSW 03:19:07 28° SSW 03:21:53 10° SE
CZ-4B R/B 3.7 03:15:18 10° N 03:20:05 52° WNW 03:24:59 10° SW
Cosmos 2278 3.9 03:15:54 10° SSW 03:21:36 78° ESE 03:27:20 10° NNE
Cosmos 2297 Rocket 3.1 03:17:11 10° NW 03:21:48 26° WSW 03:26:24 10° SSW
IDEFIX/ARIANE 42P 3.5 03:19:49 10° N 03:24:29 33° WNW 03:28:58 11° SW
GP-B 4.4 03:21:42 10° NNW 03:25:16 24° WNW 03:28:34 11° SW
Cosmos 1346 Rocket 4.5 03:22:18 10° SSE 03:25:50 34° E 03:29:24 10° NNE
Spot 4 Rocket 4.0 03:24:28 10° N 03:29:38 75° WNW 03:34:45 10° SSW
Aureole 2 Rocket 4.3 03:27:38 10° N 03:29:59 26° ENE 03:32:20 10° SE
Cosmos 2082 3.8 03:24:46 10° NNW 03:30:20 57° WSW 03:35:54 10° S
Cosmos 1606 Rocket 3.7 03:28:39 10° N 03:33:04 83° E 03:37:29 10° S
USA 276 3.7 03:30:33 10° WNW 03:33:23 29° NNW 03:36:13 10° NE
ADEOS II 4.0 03:30:33 10° NNW 03:33:30 15° WNW 03:36:26 10° W
Cosmos 2056 Rocket 3.6 03:28:35 10° SW 03:33:36 58° WNW 03:38:40 10° NNE
ADEOS Rocket 4.4 03:27:47 10° SSW 03:33:49 28° W 03:40:14 10° NW
Cosmos 1726 Rocket 4.0 03:30:47 10° N 03:35:08 68° E 03:39:30 10° SSE
Cosmos 405 2.9 03:32:51 10° NNW 03:36:21 69° W 03:39:50 10° S
Cosmos 1954 Rocket 4.0 03:32:51 10° NNW 03:38:08 83° WSW 03:43:26 10° SSE
SL-16 R/B 3.8 03:33:19 10° SSE 03:38:20 34° ESE 03:43:24 10° NE
PAYLOAD A 3.8 03:34:28 10° N 03:39:16 76° WNW 03:43:56 10° SSW
USA 234 4.3 03:34:25 10° ENE 03:40:31 40° SE 03:46:34 10° SSW
Meteor 2-5 Rocket 4.3 03:40:46 10° SW 03:46:11 42° WNW 03:51:33 10° N
FENGYUN 3A 4.0 03:41:25 10° NNE 03:46:49 73° ESE 03:52:10 10° S
Meteor 1-24 Rocket 4.0 03:42:09 10° SSW 03:47:37 49° WNW 03:52:56 10° N
Cosmos 292 Rocket 4.1 03:47:16 10° SSW 03:52:05 75° ESE 03:56:58 10° NNE
